Time,TemperatureF,DewpointF,PressureIn,WindDirection,WindDirectionDegrees,WindSpeedMPH,WindSpeedGustMPH,Humidity,HourlyPrecipIn,Conditions,Clouds,dailyrainin,SolarRadiationWatts/m^2,SoftwareType,DateUTC
2013-07-16 00:01:00,77.0,71.1,30.14,East,97,0.0,1.0,82,0.00,,,0.00,520,WeatherCatV1.14B232,2013-07-16 04:01:00,
2013-07-16 00:06:00,76.9,71.0,30.14,East,98,0.0,1.0,82,0.00,,,0.00,520,WeatherCatV1.14B232,2013-07-16 04:06:00,
2013-07-16 00:11:00,76.8,70.9,30.14,East,97,0.0,0.0,82,0.00,,,0.00,520,WeatherCatV1.14B232,2013-07-16 04:11:00,
2013-07-16 00:16:00,76.8,70.9,30.14,East,97,0.0,0.0,82,0.00,,,0.00,520,WeatherCatV1.14B232,2013-07-16 04:16:00,
2013-07-16 00:21:00,76.8,70.9,30.14,East,97,0.0,0.0,82,0.00,,,0.00,520,WeatherCatV1.14B232,2013-07-16 04:21:00,
2013-07-16 00:26:00,76.6,70.7,30.14,East,97,0.0,0.0,82,0.00,,,0.00,520,WeatherCatV1.14B232,2013-07-16 04:26:00,
2013-07-16 00:31:00,76.5,70.6,30.14,East,97,0.0,0.0,82,0.00,,,0.00,520,WeatherCatV1.14B232,2013-07-16 04:31:00,
2013-07-16 00:36:00,76.5,70.6,30.15,East,97,0.0,0.0,82,0.00,,,0.00,520,WeatherCatV1.14B232,2013-07-16 04:36:00,
2013-07-16 00:41:00,76.6,70.7,30.14,East,97,0.0,0.0,82,0.00,,,0.00,520,WeatherCatV1.14B232,2013-07-16 04:41:00,
2013-07-16 00:46:00,76.8,70.5,30.14,East,97,0.0,0.0,81,0.00,,,0.00,520,WeatherCatV1.14B232,2013-07-16 04:46:00,
2013-07-16 00:51:00,76.9,70.6,30.14,East,97,0.0,0.0,81,0.00,,,0.00,520,WeatherCatV1.14B232,2013-07-16 04:51:00,
2013-07-16 00:56:00,77.0,70.3,30.14,East,97,0.0,0.0,80,0.00,,,0.00,520,WeatherCatV1.14B232,2013-07-16 04:56:00,
2013-07-16 01:01:00,77.0,70.0,30.14,East,97,0.0,1.0,79,0.00,,,0.00,520,WeatherCatV1.14B232,2013-07-16 05:01:00,
2013-07-16 01:06:00,77.2,70.2,30.14,East,97,0.0,0.0,79,0.00,,,0.00,520,WeatherCatV1.14B232,2013-07-16 05:06:00,
2013-07-16 01:11:00,77.2,70.2,30.14,East,97,0.0,1.0,79,0.00,,,0.00,520,WeatherCatV1.14B232,2013-07-16 05:11:00,
2013-07-16 01:16:00,77.3,70.6,30.14,East,97,0.0,0.0,80,0.00,,,0.00,520,WeatherCatV1.14B232,2013-07-16 05:16:00,
2013-07-16 01:21:00,77.1,70.1,30.14,East,97,0.0,0.0,79,0.00,,,0.00,520,WeatherCatV1.14B232,2013-07-16 05:21:00,
2013-07-16 01:26:00,76.9,70.2,30.14,East,97,0.0,0.0,80,0.00,,,0.00,520,WeatherCatV1.14B232,2013-07-16 05:26:00,
2013-07-16 01:31:00,76.8,70.1,30.14,East,97,0.0,2.0,80,0.00,,,0.00,520,WeatherCatV1.14B232,2013-07-16 05:31:00,
2013-07-16 01:36:00,76.6,70.0,30.14,East,97,0.0,2.0,80,0.00,,,0.00,520,WeatherCatV1.14B232,2013-07-16 05:36:00,
2013-07-16 01:41:00,76.7,70.0,30.14,East,97,0.0,1.0,80,0.00,,,0.00,520,WeatherCatV1.14B232,2013-07-16 05:41:00,
2013-07-16 01:46:00,76.6,70.0,30.14,East,97,0.0,0.0,80,0.00,,,0.00,520,WeatherCatV1.14B232,2013-07-16 05:46:00,
2013-07-16 01:51:00,76.6,70.0,30.14,East,97,0.0,1.0,80,0.00,,,0.00,520,WeatherCatV1.14B232,2013-07-16 05:51:00,
2013-07-16 01:56:00,76.7,70.0,30.14,East,97,0.0,1.0,80,0.00,,,0.00,520,WeatherCatV1.14B232,2013-07-16 05:56:00,
2013-07-16 02:01:00,76.6,70.0,30.14,East,97,1.0,1.0,80,0.00,,,0.00,520,WeatherCatV1.14B232,2013-07-16 06:01:00,
2013-07-16 02:06:00,76.7,70.0,30.14,East,97,0.0,1.0,80,0.00,,,0.00,520,WeatherCatV1.14B232,2013-07-16 06:06:00,
2013-07-16 02:11:00,76.3,70.0,30.14,East,97,0.0,0.0,81,0.00,,,0.00,520,WeatherCatV1.14B232,2013-07-16 06:11:00,
2013-07-16 02:16:00,76.1,69.8,30.14,East,97,0.0,0.0,81,0.00,,,0.00,520,WeatherCatV1.14B232,2013-07-16 06:16:00,
2013-07-16 02:21:00,75.8,69.5,30.14,East,97,0.0,0.0,81,0.00,,,0.00,520,WeatherCatV1.14B232,2013-07-16 06:21:00,
2013-07-16 02:26:00,75.7,69.8,30.14,East,97,0.0,1.0,82,0.00,,,0.00,520,WeatherCatV1.14B232,2013-07-16 06:26:00,
2013-07-16 02:31:00,75.5,69.6,30.14,East,97,0.0,0.0,82,0.00,,,0.00,520,WeatherCatV1.14B232,2013-07-16 06:31:00,
2013-07-16 02:36:00,75.4,69.5,30.14,East,97,0.0,0.0,82,0.00,,,0.00,520,WeatherCatV1.14B232,2013-07-16 06:36:00,
2013-07-16 02:41:00,75.4,69.9,30.14,East,97,0.0,1.0,83,0.00,,,0.00,520,WeatherCatV1.14B232,2013-07-16 06:41:00,
2013-07-16 02:46:00,75.4,69.9,30.14,East,97,0.0,0.0,83,0.00,,,0.00,520,WeatherCatV1.14B232,2013-07-16 06:46:00,
2013-07-16 02:51:00,75.1,69.6,30.14,East,97,0.0,0.0,83,0.00,,,0.00,520,WeatherCatV1.14B232,2013-07-16 06:51:00,
2013-07-16 02:56:00,74.9,69.4,30.14,East,97,0.0,0.0,83,0.00,,,0.00,520,WeatherCatV1.14B232,2013-07-16 06:56:00,
2013-07-16 03:01:00,74.8,69.3,30.14,East,97,0.0,1.0,83,0.00,,,0.00,520,WeatherCatV1.14B232,2013-07-16 07:01:00,
2013-07-16 03:06:00,74.6,69.1,30.14,East,97,0.0,0.0,83,0.00,,,0.00,520,WeatherCatV1.14B232,2013-07-16 07:06:00,
2013-07-16 03:11:00,74.5,69.0,30.14,East,97,0.0,1.0,83,0.00,,,0.00,520,WeatherCatV1.14B232,2013-07-16 07:11:00,
2013-07-16 03:16:00,74.4,69.2,30.14,East,97,0.0,1.0,84,0.00,,,0.00,520,WeatherCatV1.14B232,2013-07-16 07:16:00,
2013-07-16 03:21:00,74.3,69.1,30.14,East,97,0.0,0.0,84,0.00,,,0.00,520,WeatherCatV1.14B232,2013-07-16 07:21:00,
2013-07-16 03:26:00,74.2,69.0,30.14,East,97,0.0,0.0,84,0.00,,,0.00,520,WeatherCatV1.14B232,2013-07-16 07:26:00,
2013-07-16 03:31:00,74.1,68.9,30.14,East,97,0.0,1.0,84,0.00,,,0.00,520,WeatherCatV1.14B232,2013-07-16 07:31:00,
2013-07-16 03:36:00,73.9,68.7,30.14,East,98,0.0,0.0,84,0.00,,,0.00,520,WeatherCatV1.14B232,2013-07-16 07:36:00,
2013-07-16 03:41:00,73.9,68.4,30.14,East,97,0.0,0.0,83,0.00,,,0.00,520,WeatherCatV1.14B232,2013-07-16 07:41:00,
2013-07-16 03:46:00,74.1,68.6,30.14,East,97,1.0,1.0,83,0.00,,,0.00,520,WeatherCatV1.14B232,2013-07-16 07:46:00,
2013-07-16 03:51:00,74.1,68.2,30.14,East,97,0.0,0.0,82,0.00,,,0.00,520,WeatherCatV1.14B232,2013-07-16 07:51:00,
2013-07-16 03:56:00,74.1,68.2,30.14,East,97,0.0,1.0,82,0.00,,,0.00,520,WeatherCatV1.14B232,2013-07-16 07:56:00,
2013-07-16 04:01:00,74.2,68.3,30.14,East,98,0.0,0.0,82,0.00,,,0.00,520,WeatherCatV1.14B232,2013-07-16 08:01:00,
2013-07-16 04:06:00,74.1,68.6,30.14,East,97,0.0,1.0,83,0.00,,,0.00,520,WeatherCatV1.14B232,2013-07-16 08:06:00,
2013-07-16 04:11:00,74.0,68.5,30.14,East,97,0.0,1.0,83,0.00,,,0.00,520,WeatherCatV1.14B232,2013-07-16 08:11:00,
2013-07-16 04:16:00,73.9,68.0,30.14,East,98,0.0,0.0,82,0.00,,,0.00,520,WeatherCatV1.14B232,2013-07-16 08:16:00,
2013-07-16 04:21:00,74.1,68.2,30.14,East,97,1.0,6.0,82,0.00,,,0.00,520,WeatherCatV1.14B232,2013-07-16 08:21:00,
2013-07-16 04:26:00,74.4,67.8,30.14,East,98,0.0,2.0,80,0.00,,,0.00,520,WeatherCatV1.14B232,2013-07-16 08:26:00,
2013-07-16 04:31:00,74.6,67.6,30.14,East,97,0.0,1.0,79,0.00,,,0.00,520,WeatherCatV1.14B232,2013-07-16 08:31:00,
2013-07-16 04:36:00,74.8,67.8,30.14,East,97,2.0,2.0,79,0.00,,,0.00,520,WeatherCatV1.14B232,2013-07-16 08:36:00,
2013-07-16 04:41:00,74.9,67.9,30.14,East,98,0.0,2.0,79,0.00,,,0.00,520,WeatherCatV1.14B232,2013-07-16 08:41:00,
2013-07-16 04:46:00,74.9,67.9,30.14,East,97,0.0,1.0,79,0.00,,,0.00,520,WeatherCatV1.14B232,2013-07-16 08:46:00,
2013-07-16 04:51:00,74.8,67.8,30.14,East,97,0.0,1.0,79,0.00,,,0.00,520,WeatherCatV1.14B232,2013-07-16 08:51:00,
2013-07-16 04:56:00,74.7,67.7,30.14,East,97,0.0,0.0,79,0.00,,,0.00,520,WeatherCatV1.14B232,2013-07-16 08:56:00,
2013-07-16 05:01:00,74.6,67.6,30.14,East,98,1.0,1.0,79,0.00,,,0.00,520,WeatherCatV1.14B232,2013-07-16 09:01:00,
2013-07-16 05:06:00,74.5,67.5,30.14,East,97,0.0,0.0,79,0.00,,,0.00,520,WeatherCatV1.14B232,2013-07-16 09:06:00,
2013-07-16 05:11:00,74.4,67.8,30.14,East,98,1.0,1.0,80,0.00,,,0.00,520,WeatherCatV1.14B232,2013-07-16 09:11:00,
2013-07-16 05:16:00,74.2,67.6,30.15,East,97,1.0,1.0,80,0.00,,,0.00,520,WeatherCatV1.14B232,2013-07-16 09:16:00,
2013-07-16 05:21:00,74.1,67.5,30.15,East,97,0.0,1.0,80,0.00,,,0.00,520,WeatherCatV1.14B232,2013-07-16 09:21:00,
2013-07-16 05:26:00,74.0,67.4,30.15,East,97,0.0,1.0,80,0.00,,,0.00,520,WeatherCatV1.14B232,2013-07-16 09:26:00,
2013-07-16 05:31:00,74.0,67.1,30.15,East,97,0.0,2.0,79,0.00,,,0.00,520,WeatherCatV1.14B232,2013-07-16 09:31:00,
2013-07-16 05:36:00,74.2,67.3,30.15,East,98,0.0,0.0,79,0.00,,,0.00,520,WeatherCatV1.14B232,2013-07-16 09:36:00,
2013-07-16 05:41:00,74.2,67.3,30.16,East,97,1.0,1.0,79,0.00,,,0.00,520,WeatherCatV1.14B232,2013-07-16 09:41:00,
2013-07-16 05:46:00,74.3,67.4,30.16,East,97,0.0,1.0,79,0.00,,,0.00,520,WeatherCatV1.14B232,2013-07-16 09:46:00,
2013-07-16 05:51:00,74.3,67.0,30.16,East,97,0.0,1.0,78,0.00,,,0.00,520,WeatherCatV1.14B232,2013-07-16 09:51:00,
2013-07-16 05:56:00,74.3,67.4,30.16,East,97,0.0,0.0,79,0.00,,,0.00,520,WeatherCatV1.14B232,2013-07-16 09:56:00,
2013-07-16 06:01:00,74.2,67.3,30.16,East,97,0.0,1.0,79,0.00,,,0.00,520,WeatherCatV1.14B232,2013-07-16 10:01:00,
2013-07-16 06:06:00,74.1,67.2,30.16,East,97,0.0,0.0,79,0.00,,,0.00,520,WeatherCatV1.14B232,2013-07-16 10:06:00,
2013-07-16 06:11:00,73.9,67.0,30.16,East,97,0.0,1.0,79,0.00,,,0.00,520,WeatherCatV1.14B232,2013-07-16 10:11:00,
2013-07-16 06:16:00,73.8,67.2,30.16,East,97,1.0,1.0,80,0.00,,,0.00,520,WeatherCatV1.14B232,2013-07-16 10:16:00,
2013-07-16 06:21:00,73.8,67.6,30.16,East,97,0.0,1.0,81,0.00,,,0.00,520,WeatherCatV1.14B232,2013-07-16 10:21:00,
2013-07-16 06:26:00,73.7,67.5,30.16,East,97,0.0,1.0,81,0.00,,,0.00,520,WeatherCatV1.14B232,2013-07-16 10:26:00,
2013-07-16 06:31:00,73.5,67.3,30.17,East,97,0.0,2.0,81,0.00,,,0.00,520,WeatherCatV1.14B232,2013-07-16 10:31:00,
2013-07-16 06:36:00,73.4,67.2,30.17,East,97,0.0,1.0,81,0.00,,,0.00,520,WeatherCatV1.14B232,2013-07-16 10:36:00,
2013-07-16 06:41:00,73.3,67.5,30.17,East,98,0.0,1.0,82,0.00,,,0.00,520,WeatherCatV1.14B232,2013-07-16 10:41:00,
2013-07-16 06:46:00,73.3,67.8,30.17,East,97,2.0,2.0,83,0.00,,,0.00,520,WeatherCatV1.14B232,2013-07-16 10:46:00,
2013-07-16 06:51:00,73.4,67.6,30.17,East,97,0.0,1.0,82,0.00,,,0.00,520,WeatherCatV1.14B232,2013-07-16 10:51:00,
2013-07-16 06:56:00,73.6,67.4,30.17,East,97,3.0,3.0,81,0.00,,,0.00,520,WeatherCatV1.14B232,2013-07-16 10:56:00,
2013-07-16 07:01:00,73.9,67.3,30.17,East,97,0.0,0.0,80,0.00,,,0.00,520,WeatherCatV1.14B232,2013-07-16 11:01:00,
2013-07-16 07:06:00,74.4,67.4,30.17,East,97,1.0,2.0,79,0.00,,,0.00,520,WeatherCatV1.14B232,2013-07-16 11:06:00,
2013-07-16 07:11:00,75.1,67.4,30.17,East,97,2.0,5.0,77,0.00,,,0.00,520,WeatherCatV1.14B232,2013-07-16 11:11:00,
2013-07-16 07:16:00,76.1,68.3,30.17,East,97,0.0,1.0,77,0.00,,,0.00,520,WeatherCatV1.14B232,2013-07-16 11:16:00,
2013-07-16 07:21:00,77.3,69.1,30.17,East,97,0.0,1.0,76,0.00,,,0.00,520,WeatherCatV1.14B232,2013-07-16 11:21:00,
2013-07-16 07:26:00,78.0,68.6,30.17,East,97,0.0,2.0,73,0.00,,,0.00,520,WeatherCatV1.14B232,2013-07-16 11:26:00,
2013-07-16 07:31:00,78.6,68.4,30.17,East,97,0.0,2.0,71,0.00,,,0.00,520,WeatherCatV1.14B232,2013-07-16 11:31:00,
2013-07-16 07:36:00,79.1,69.3,30.18,East,97,1.0,1.0,72,0.00,,,0.00,520,WeatherCatV1.14B232,2013-07-16 11:36:00,
2013-07-16 07:41:00,79.2,68.5,30.18,East,98,0.0,1.0,70,0.00,,,0.00,520,WeatherCatV1.14B232,2013-07-16 11:41:00,
2013-07-16 07:46:00,79.8,68.7,30.18,East,98,0.0,3.0,69,0.00,,,0.00,520,WeatherCatV1.14B232,2013-07-16 11:46:00,
2013-07-16 07:51:00,80.0,68.5,30.18,East,97,0.0,1.0,68,0.00,,,0.00,520,WeatherCatV1.14B232,2013-07-16 11:51:00,
2013-07-16 07:56:00,80.6,69.0,30.18,East,98,0.0,2.0,68,0.00,,,0.00,520,WeatherCatV1.14B232,2013-07-16 11:56:00,
2013-07-16 08:01:00,81.7,69.2,30.18,East,97,0.0,1.0,66,0.00,,,0.00,520,WeatherCatV1.14B232,2013-07-16 12:01:00,
2013-07-16 08:06:00,82.1,70.5,30.18,East,97,0.0,2.0,68,0.00,,,0.00,520,WeatherCatV1.14B232,2013-07-16 12:06:00,
2013-07-16 08:11:00,82.2,69.2,30.18,East,98,0.0,0.0,65,0.00,,,0.00,520,WeatherCatV1.14B232,2013-07-16 12:11:00,
2013-07-16 08:16:00,82.8,70.3,30.18,East,97,0.0,0.0,66,0.00,,,0.00,520,WeatherCatV1.14B232,2013-07-16 12:16:00,
2013-07-16 08:21:00,83.4,69.5,30.18,East,97,0.0,1.0,63,0.00,,,0.00,520,WeatherCatV1.14B232,2013-07-16 12:21:00,
2013-07-16 08:26:00,83.7,70.2,30.18,East,97,0.0,0.0,64,0.00,,,0.00,520,WeatherCatV1.14B232,2013-07-16 12:26:00,
2013-07-16 08:31:00,83.8,70.8,30.19,East,98,0.0,1.0,65,0.00,,,0.00,520,WeatherCatV1.14B232,2013-07-16 12:31:00,
2013-07-16 08:36:00,83.8,70.8,30.18,East,98,0.0,1.0,65,0.00,,,0.00,520,WeatherCatV1.14B232,2013-07-16 12:36:00,
2013-07-16 08:41:00,83.0,69.5,30.18,East,98,1.0,1.0,64,0.00,,,0.00,520,WeatherCatV1.14B232,2013-07-16 12:41:00,
2013-07-16 08:46:00,82.4,69.9,30.18,East,98,1.0,2.0,66,0.00,,,0.00,520,WeatherCatV1.14B232,2013-07-16 12:46:00,
2013-07-16 08:51:00,82.3,69.8,30.18,East,98,0.0,1.0,66,0.00,,,0.00,520,WeatherCatV1.14B232,2013-07-16 12:51:00,
2013-07-16 08:56:00,82.7,71.0,30.18,East,98,1.0,1.0,68,0.00,,,0.00,520,WeatherCatV1.14B232,2013-07-16 12:56:00,
2013-07-16 09:01:00,82.9,70.3,30.18,East,98,0.0,1.0,66,0.00,,,0.00,520,WeatherCatV1.14B232,2013-07-16 13:01:00,
2013-07-16 09:06:00,83.5,71.4,30.18,East,98,0.0,0.0,67,0.00,,,0.00,520,WeatherCatV1.14B232,2013-07-16 13:06:00,
2013-07-16 09:11:00,84.5,71.9,30.18,East,97,0.0,1.0,66,0.00,,,0.00,520,WeatherCatV1.14B232,2013-07-16 13:11:00,
2013-07-16 09:16:00,85.6,70.6,30.18,East,98,1.0,2.0,61,0.00,,,0.00,520,WeatherCatV1.14B232,2013-07-16 13:16:00,
2013-07-16 09:21:00,85.4,72.3,30.18,East,98,1.0,1.0,65,0.00,,,0.00,520,WeatherCatV1.14B232,2013-07-16 13:21:00,
2013-07-16 09:26:00,85.7,72.5,30.18,East,97,1.0,1.0,65,0.00,,,0.00,520,WeatherCatV1.14B232,2013-07-16 13:26:00,
2013-07-16 09:31:00,86.3,73.1,30.18,East,97,0.0,1.0,65,0.00,,,0.00,520,WeatherCatV1.14B232,2013-07-16 13:31:00,
2013-07-16 09:36:00,86.8,72.2,30.18,East,97,0.0,1.0,62,0.00,,,0.00,520,WeatherCatV1.14B232,2013-07-16 13:36:00,
2013-07-16 09:41:00,87.3,72.7,30.18,East,97,0.0,2.0,62,0.00,,,0.00,520,WeatherCatV1.14B232,2013-07-16 13:41:00,
2013-07-16 09:46:00,87.7,73.0,30.18,East,97,0.0,1.0,62,0.00,,,0.00,520,WeatherCatV1.14B232,2013-07-16 13:46:00,
2013-07-16 09:51:00,87.5,72.8,30.18,East,97,1.0,1.0,62,0.00,,,0.00,520,WeatherCatV1.14B232,2013-07-16 13:51:00,
2013-07-16 09:56:00,87.8,72.6,30.18,East,97,0.0,1.0,61,0.00,,,0.00,520,WeatherCatV1.14B232,2013-07-16 13:56:00,
2013-07-16 10:01:00,88.0,72.8,30.17,East,97,1.0,1.0,61,0.00,,,0.00,520,WeatherCatV1.14B232,2013-07-16 14:01:00,
2013-07-16 10:06:00,87.6,71.0,30.17,East,97,3.0,3.0,58,0.00,,,0.00,520,WeatherCatV1.14B232,2013-07-16 14:06:00,
2013-07-16 10:11:00,87.4,71.8,30.17,East,97,0.0,2.0,60,0.00,,,0.00,520,WeatherCatV1.14B232,2013-07-16 14:11:00,
2013-07-16 10:16:00,87.8,71.7,30.18,East,97,2.0,2.0,59,0.00,,,0.00,520,WeatherCatV1.14B232,2013-07-16 14:16:00,
2013-07-16 10:21:00,88.1,71.4,30.17,East,97,0.0,1.0,58,0.00,,,0.00,520,WeatherCatV1.14B232,2013-07-16 14:21:00,
2013-07-16 10:26:00,88.4,71.2,30.17,East,97,1.0,3.0,57,0.00,,,0.00,520,WeatherCatV1.14B232,2013-07-16 14:26:00,
2013-07-16 10:31:00,88.2,70.5,30.17,East,97,0.0,2.0,56,0.00,,,0.00,520,WeatherCatV1.14B232,2013-07-16 14:31:00,
2013-07-16 10:36:00,88.5,72.3,30.18,East,97,0.0,3.0,59,0.00,,,0.00,520,WeatherCatV1.14B232,2013-07-16 14:36:00,
2013-07-16 10:41:00,88.7,72.0,30.18,East,97,1.0,2.0,58,0.00,,,0.00,520,WeatherCatV1.14B232,2013-07-16 14:41:00,
2013-07-16 10:46:00,88.6,70.9,30.18,East,97,1.0,2.0,56,0.00,,,0.00,520,WeatherCatV1.14B232,2013-07-16 14:46:00,
2013-07-16 10:51:00,88.4,71.7,30.17,East,98,0.0,2.0,58,0.00,,,0.00,520,WeatherCatV1.14B232,2013-07-16 14:51:00,
2013-07-16 10:56:00,88.7,71.5,30.17,East,98,0.0,3.0,57,0.00,,,0.00,520,WeatherCatV1.14B232,2013-07-16 14:56:00,
2013-07-16 11:01:00,89.2,72.5,30.17,East,97,1.0,3.0,58,0.00,,,0.00,520,WeatherCatV1.14B232,2013-07-16 15:01:00,
2013-07-16 11:06:00,89.1,72.4,30.17,East,98,0.0,2.0,58,0.00,,,0.00,520,WeatherCatV1.14B232,2013-07-16 15:06:00,
2013-07-16 11:11:00,89.5,72.2,30.17,East,97,2.0,2.0,57,0.00,,,0.00,520,WeatherCatV1.14B232,2013-07-16 15:11:00,
2013-07-16 11:16:00,90.2,71.8,30.17,East,98,0.0,3.0,55,0.00,,,0.00,520,WeatherCatV1.14B232,2013-07-16 15:16:00,
2013-07-16 11:21:00,90.8,72.4,30.16,East,97,0.0,0.0,55,0.00,,,0.00,520,WeatherCatV1.14B232,2013-07-16 15:21:00,
2013-07-16 11:26:00,90.7,71.7,30.16,East,98,1.0,3.0,54,0.00,,,0.00,520,WeatherCatV1.14B232,2013-07-16 15:26:00,
2013-07-16 11:31:00,90.4,70.9,30.16,East,97,1.0,2.0,53,0.00,,,0.00,520,WeatherCatV1.14B232,2013-07-16 15:31:00,
2013-07-16 11:36:00,90.4,71.4,30.16,East,97,1.0,2.0,54,0.00,,,0.00,520,WeatherCatV1.14B232,2013-07-16 15:36:00,
2013-07-16 11:41:00,90.8,72.4,30.16,East,97,1.0,2.0,55,0.00,,,0.00,520,WeatherCatV1.14B232,2013-07-16 15:41:00,
2013-07-16 11:46:00,90.9,71.9,30.16,East,98,1.0,3.0,54,0.00,,,0.00,520,WeatherCatV1.14B232,2013-07-16 15:46:00,
2013-07-16 11:51:00,91.0,71.4,30.16,East,98,0.0,2.0,53,0.00,,,0.00,520,WeatherCatV1.14B232,2013-07-16 15:51:00,
2013-07-16 11:56:00,90.9,73.0,30.16,East,97,1.0,2.0,56,0.00,,,0.00,520,WeatherCatV1.14B232,2013-07-16 15:56:00,
2013-07-16 12:01:00,91.0,72.5,30.16,East,98,1.0,1.0,55,0.00,,,0.00,520,WeatherCatV1.14B232,2013-07-16 16:01:00,
2013-07-16 12:06:00,90.7,72.3,30.16,East,98,1.0,5.0,55,0.00,,,0.00,520,WeatherCatV1.14B232,2013-07-16 16:06:00,
2013-07-16 12:11:00,90.6,71.6,30.16,East,97,1.0,6.0,54,0.00,,,0.00,520,WeatherCatV1.14B232,2013-07-16 16:11:00,
2013-07-16 12:16:00,90.7,71.7,30.16,East,98,0.0,2.0,54,0.00,,,0.00,520,WeatherCatV1.14B232,2013-07-16 16:16:00,
2013-07-16 12:21:00,91.2,72.7,30.16,East,97,1.0,2.0,55,0.00,,,0.00,520,WeatherCatV1.14B232,2013-07-16 16:21:00,
2013-07-16 12:26:00,91.4,72.4,30.16,East,98,1.0,2.0,54,0.00,,,0.00,520,WeatherCatV1.14B232,2013-07-16 16:26:00,
2013-07-16 12:31:00,91.5,71.3,30.15,East,94,1.0,3.0,52,0.00,,,0.00,520,WeatherCatV1.14B232,2013-07-16 16:31:00,
2013-07-16 12:36:00,91.7,71.5,30.15,East,94,1.0,1.0,52,0.00,,,0.00,520,WeatherCatV1.14B232,2013-07-16 16:36:00,
2013-07-16 12:41:00,91.8,71.6,30.15,East,94,1.0,2.0,52,0.00,,,0.00,520,WeatherCatV1.14B232,2013-07-16 16:41:00,
2013-07-16 12:46:00,91.8,71.0,30.15,East,94,2.0,3.0,51,0.00,,,0.00,520,WeatherCatV1.14B232,2013-07-16 16:46:00,
2013-07-16 12:51:00,92.3,71.5,30.15,East,95,1.0,3.0,51,0.00,,,0.00,520,WeatherCatV1.14B232,2013-07-16 16:51:00,
2013-07-16 12:56:00,92.9,72.6,30.15,East,94,2.0,2.0,52,0.00,,,0.00,520,WeatherCatV1.14B232,2013-07-16 16:56:00,
2013-07-16 13:01:00,92.6,71.8,30.15,East,94,1.0,3.0,51,0.00,,,0.00,520,WeatherCatV1.14B232,2013-07-16 17:01:00,
2013-07-16 13:06:00,92.4,70.4,30.15,East,94,1.0,3.0,49,0.00,,,0.00,520,WeatherCatV1.14B232,2013-07-16 17:06:00,
2013-07-16 13:11:00,92.2,72.0,30.15,East,94,3.0,3.0,52,0.00,,,0.00,520,WeatherCatV1.14B232,2013-07-16 17:11:00,
2013-07-16 13:16:00,92.3,70.9,30.15,East,95,0.0,4.0,50,0.00,,,0.00,520,WeatherCatV1.14B232,2013-07-16 17:16:00,
2013-07-16 13:21:00,92.6,70.0,30.15,East,94,1.0,2.0,48,0.00,,,0.00,520,WeatherCatV1.14B232,2013-07-16 17:21:00,
2013-07-16 13:26:00,92.7,70.1,30.15,East,94,1.0,2.0,48,0.00,,,0.00,520,WeatherCatV1.14B232,2013-07-16 17:26:00,
2013-07-16 13:31:00,92.7,69.5,30.15,East,95,0.0,2.0,47,0.00,,,0.00,520,WeatherCatV1.14B232,2013-07-16 17:31:00,
2013-07-16 13:38:00,92.5,69.9,30.14,East,94,1.0,1.0,48,0.00,,,0.00,520,WeatherCatV1.20B785,2013-07-16 17:38:00,
2013-07-16 13:43:00,92.2,69.0,30.14,East,94,1.0,2.0,47,0.00,,,0.00,520,WeatherCatV1.20B785,2013-07-16 17:43:00,
2013-07-16 13:48:00,92.2,69.6,30.14,East,94,0.0,4.0,48,0.00,,,0.00,520,WeatherCatV1.20B785,2013-07-16 17:48:00,
2013-07-16 13:53:00,92.7,69.5,30.14,East,95,0.0,2.0,47,0.00,,,0.00,520,WeatherCatV1.20B785,2013-07-16 17:53:00,
2013-07-16 13:58:00,93.1,70.4,30.14,East,94,0.0,2.0,48,0.00,,,0.00,520,WeatherCatV1.20B785,2013-07-16 17:58:00,
2013-07-16 14:03:00,93.3,70.0,30.14,East,94,2.0,4.0,47,0.00,,,0.00,520,WeatherCatV1.20B785,2013-07-16 18:03:00,
2013-07-16 14:08:00,92.8,70.8,30.14,East,94,1.0,1.0,49,0.00,,,0.00,520,WeatherCatV1.20B785,2013-07-16 18:08:00,
2013-07-16 14:13:00,93.0,70.4,30.14,East,95,0.0,1.0,48,0.00,,,0.00,520,WeatherCatV1.20B785,2013-07-16 18:13:00,
2013-07-16 14:18:00,93.2,69.9,30.13,East,94,0.0,1.0,47,0.00,,,0.00,520,WeatherCatV1.20B785,2013-07-16 18:18:00,
2013-07-16 14:23:00,93.3,70.6,30.14,East,94,1.0,2.0,48,0.00,,,0.00,520,WeatherCatV1.20B785,2013-07-16 18:23:00,
2013-07-16 14:28:00,92.9,69.7,30.13,East,94,1.0,3.0,47,0.00,,,0.00,520,WeatherCatV1.20B785,2013-07-16 18:28:00,
2013-07-16 14:33:00,92.2,70.2,30.13,East,94,0.0,1.0,49,0.00,,,0.00,520,WeatherCatV1.20B785,2013-07-16 18:33:00,
2013-07-16 14:38:00,92.1,70.7,30.13,East,94,1.0,4.0,50,0.00,,,0.00,520,WeatherCatV1.20B785,2013-07-16 18:38:00,
2013-07-16 14:43:00,91.7,69.8,30.13,East,95,0.0,2.0,49,0.00,,,0.00,520,WeatherCatV1.20B785,2013-07-16 18:43:00,
2013-07-16 14:48:00,91.3,70.0,30.13,East,94,0.0,2.0,50,0.00,,,0.00,520,WeatherCatV1.20B785,2013-07-16 18:48:00,
2013-07-16 14:53:00,91.7,69.8,30.13,East,94,1.0,2.0,49,0.00,,,0.00,520,WeatherCatV1.20B785,2013-07-16 18:53:00,
2013-07-16 14:58:00,91.5,70.8,30.13,East,94,1.0,3.0,51,0.00,,,0.00,520,WeatherCatV1.20B785,2013-07-16 18:58:00,
2013-07-16 15:03:00,91.1,69.2,30.13,East,94,2.0,3.0,49,0.00,,,0.00,520,WeatherCatV1.20B785,2013-07-16 19:03:00,
2013-07-16 15:08:00,91.3,69.4,30.13,East,94,1.0,2.0,49,0.00,,,0.00,520,WeatherCatV1.20B785,2013-07-16 19:08:00,
2013-07-16 15:13:00,91.5,70.2,30.13,East,95,0.0,5.0,50,0.00,,,0.00,520,WeatherCatV1.20B785,2013-07-16 19:13:00,
2013-07-16 15:18:00,91.4,70.1,30.12,East,94,1.0,1.0,50,0.00,,,0.00,520,WeatherCatV1.20B785,2013-07-16 19:18:00,
2013-07-16 15:23:00,91.5,70.8,30.12,East,95,0.0,1.0,51,0.00,,,0.00,520,WeatherCatV1.20B785,2013-07-16 19:23:00,
2013-07-16 15:28:00,91.5,70.8,30.12,East,95,1.0,2.0,51,0.00,,,0.00,520,WeatherCatV1.20B785,2013-07-16 19:28:00,
2013-07-16 15:33:00,91.2,69.9,30.12,East,94,2.0,2.0,50,0.00,,,0.00,520,WeatherCatV1.20B785,2013-07-16 19:33:00,
2013-07-16 15:38:00,90.9,70.8,30.12,East,95,1.0,2.0,52,0.00,,,0.00,520,WeatherCatV1.20B785,2013-07-16 19:38:00,
2013-07-16 15:43:00,90.8,70.1,30.12,East,94,0.0,1.0,51,0.00,,,0.00,520,WeatherCatV1.20B785,2013-07-16 19:43:00,
2013-07-16 15:48:00,90.4,70.3,30.12,East,95,0.0,3.0,52,0.00,,,0.00,520,WeatherCatV1.20B785,2013-07-16 19:48:00,
2013-07-16 15:53:00,90.4,69.8,30.12,East,94,0.0,3.0,51,0.00,,,0.00,520,WeatherCatV1.20B785,2013-07-16 19:53:00,
2013-07-16 15:58:00,90.1,68.9,30.12,East,95,1.0,4.0,50,0.00,,,0.00,520,WeatherCatV1.20B785,2013-07-16 19:58:00,
2013-07-16 16:03:00,90.0,70.0,30.12,East,95,0.0,1.0,52,0.00,,,0.00,520,WeatherCatV1.20B785,2013-07-16 20:03:00,
2013-07-16 16:08:00,89.9,69.9,30.12,East,94,1.0,3.0,52,0.00,,,0.00,520,WeatherCatV1.20B785,2013-07-16 20:08:00,
2013-07-16 16:13:00,89.9,70.4,30.12,East,94,0.0,2.0,53,0.00,,,0.00,520,WeatherCatV1.20B785,2013-07-16 20:13:00,
2013-07-16 16:18:00,90.0,70.5,30.12,East,94,0.0,3.0,53,0.00,,,0.00,520,WeatherCatV1.20B785,2013-07-16 20:18:00,
2013-07-16 16:23:00,90.2,71.3,30.12,East,95,0.0,1.0,54,0.00,,,0.00,520,WeatherCatV1.20B785,2013-07-16 20:23:00,
2013-07-16 16:28:00,90.1,70.1,30.12,East,95,2.0,4.0,52,0.00,,,0.00,520,WeatherCatV1.20B785,2013-07-16 20:28:00,
2013-07-16 16:33:00,89.9,70.4,30.12,East,94,0.0,1.0,53,0.00,,,0.00,520,WeatherCatV1.20B785,2013-07-16 20:33:00,
2013-07-16 16:38:00,89.8,70.9,30.12,East,94,0.0,2.0,54,0.00,,,0.00,520,WeatherCatV1.20B785,2013-07-16 20:38:00,
2013-07-16 16:43:00,89.8,70.3,30.12,East,94,0.0,1.0,53,0.00,,,0.00,520,WeatherCatV1.20B785,2013-07-16 20:43:00,
2013-07-16 16:48:00,89.7,70.2,30.12,East,94,0.0,0.0,53,0.00,,,0.00,520,WeatherCatV1.20B785,2013-07-16 20:48:00,
2013-07-16 16:53:00,89.6,70.2,30.11,East,94,0.0,1.0,53,0.00,,,0.00,520,WeatherCatV1.20B785,2013-07-16 20:53:00,
2013-07-16 16:58:00,89.6,70.2,30.11,East,94,0.0,1.0,53,0.00,,,0.00,520,WeatherCatV1.20B785,2013-07-16 20:58:00,
2013-07-16 17:03:00,89.6,71.2,30.11,East,95,1.0,2.0,55,0.00,,,0.00,520,WeatherCatV1.20B785,2013-07-16 21:03:00,
2013-07-16 17:08:00,89.5,69.5,30.11,East,94,0.0,2.0,52,0.00,,,0.00,520,WeatherCatV1.20B785,2013-07-16 21:08:00,
2013-07-16 17:13:00,89.4,69.4,30.11,East,94,0.0,2.0,52,0.00,,,0.00,520,WeatherCatV1.20B785,2013-07-16 21:13:00,
2013-07-16 17:18:00,89.3,69.9,30.11,East,94,0.0,1.0,53,0.00,,,0.00,520,WeatherCatV1.20B785,2013-07-16 21:18:00,
2013-07-16 17:23:00,89.3,70.4,30.11,East,94,0.0,1.0,54,0.00,,,0.00,520,WeatherCatV1.20B785,2013-07-16 21:23:00,
2013-07-16 17:28:00,89.2,70.3,30.11,East,95,0.0,0.0,54,0.00,,,0.00,520,WeatherCatV1.20B785,2013-07-16 21:28:00,
2013-07-16 17:33:00,89.1,69.7,30.11,East,95,0.0,1.0,53,0.00,,,0.00,520,WeatherCatV1.20B785,2013-07-16 21:33:00,
2013-07-16 17:38:00,89.1,71.3,30.11,East,94,0.0,1.0,56,0.00,,,0.00,520,WeatherCatV1.20B785,2013-07-16 21:38:00,
2013-07-16 17:43:00,89.0,70.7,30.11,East,94,0.0,2.0,55,0.00,,,0.00,520,WeatherCatV1.20B785,2013-07-16 21:43:00,
2013-07-16 17:48:00,88.9,71.7,30.11,East,94,0.0,1.0,57,0.00,,,0.00,520,WeatherCatV1.20B785,2013-07-16 21:48:00,
2013-07-16 17:53:00,88.6,69.2,30.11,East,94,1.0,5.0,53,0.00,,,0.00,520,WeatherCatV1.20B785,2013-07-16 21:53:00,
2013-07-16 17:58:00,88.5,71.3,30.11,East,95,0.0,2.0,57,0.00,,,0.00,520,WeatherCatV1.20B785,2013-07-16 21:58:00,
2013-07-16 18:03:00,88.3,70.6,30.11,East,94,0.0,1.0,56,0.00,,,0.00,520,WeatherCatV1.20B785,2013-07-16 22:03:00,
2013-07-16 18:08:00,88.2,71.0,30.11,East,94,0.0,1.0,57,0.00,,,0.00,520,WeatherCatV1.20B785,2013-07-16 22:08:00,
2013-07-16 18:13:00,88.0,70.8,30.11,East,94,0.0,1.0,57,0.00,,,0.00,520,WeatherCatV1.20B785,2013-07-16 22:13:00,
2013-07-16 18:18:00,88.0,71.8,30.11,East,94,1.0,1.0,59,0.00,,,0.00,520,WeatherCatV1.20B785,2013-07-16 22:18:00,
2013-07-16 18:23:00,87.8,71.2,30.11,East,94,0.0,0.0,58,0.00,,,0.00,520,WeatherCatV1.20B785,2013-07-16 22:23:00,
2013-07-16 18:28:00,87.7,71.6,30.11,East,94,1.0,1.0,59,0.00,,,0.00,520,WeatherCatV1.20B785,2013-07-16 22:28:00,
2013-07-16 18:33:00,87.5,70.9,30.11,East,94,0.0,1.0,58,0.00,,,0.00,520,WeatherCatV1.20B785,2013-07-16 22:33:00,
2013-07-16 18:38:00,87.3,71.2,30.11,East,94,0.0,2.0,59,0.00,,,0.00,520,WeatherCatV1.20B785,2013-07-16 22:38:00,
2013-07-16 18:43:00,87.1,71.5,30.11,East,94,0.0,0.0,60,0.00,,,0.00,520,WeatherCatV1.20B785,2013-07-16 22:43:00,
2013-07-16 18:48:00,87.0,71.4,30.11,East,93,0.0,0.0,60,0.00,,,0.00,520,WeatherCatV1.20B785,2013-07-16 22:48:00,
2013-07-16 18:53:00,86.8,71.2,30.11,East,93,0.0,1.0,60,0.00,,,0.00,520,WeatherCatV1.20B785,2013-07-16 22:53:00,
2013-07-16 18:58:00,86.6,70.5,30.12,East,93,0.0,0.0,59,0.00,,,0.00,520,WeatherCatV1.20B785,2013-07-16 22:58:00,
2013-07-16 19:03:00,86.6,71.0,30.11,East,93,0.0,0.0,60,0.00,,,0.00,520,WeatherCatV1.20B785,2013-07-16 23:03:00,
2013-07-16 19:08:00,86.5,71.9,30.11,East,93,0.0,1.0,62,0.00,,,0.00,520,WeatherCatV1.20B785,2013-07-16 23:08:00,
2013-07-16 19:13:00,86.3,71.7,30.12,East,93,0.0,1.0,62,0.00,,,0.00,520,WeatherCatV1.20B785,2013-07-16 23:13:00,
2013-07-16 19:18:00,86.0,71.9,30.12,East,93,0.0,0.0,63,0.00,,,0.00,520,WeatherCatV1.20B785,2013-07-16 23:18:00,
2013-07-16 19:23:00,85.7,72.1,30.12,East,93,0.0,0.0,64,0.00,,,0.00,520,WeatherCatV1.20B785,2013-07-16 23:23:00,
2013-07-16 19:28:00,85.5,72.4,30.12,East,93,0.0,0.0,65,0.00,,,0.00,520,WeatherCatV1.20B785,2013-07-16 23:28:00,
2013-07-16 19:33:00,85.2,72.1,30.12,East,94,0.0,0.0,65,0.00,,,0.00,520,WeatherCatV1.20B785,2013-07-16 23:33:00,
2013-07-16 19:38:00,85.0,72.3,30.12,East,93,0.0,0.0,66,0.00,,,0.00,520,WeatherCatV1.20B785,2013-07-16 23:38:00,
2013-07-16 19:43:00,84.7,72.5,30.13,East,94,0.0,0.0,67,0.00,,,0.00,520,WeatherCatV1.20B785,2013-07-16 23:43:00,
2013-07-16 19:48:00,84.4,72.2,30.13,East,93,0.0,0.0,67,0.00,,,0.00,520,WeatherCatV1.20B785,2013-07-16 23:48:00,
2013-07-16 19:53:00,84.2,72.5,30.13,East,93,0.0,0.0,68,0.00,,,0.00,520,WeatherCatV1.20B785,2013-07-16 23:53:00,
2013-07-16 19:58:00,84.0,72.7,30.13,East,94,0.0,0.0,69,0.00,,,0.00,520,WeatherCatV1.20B785,2013-07-16 23:58:00,
2013-07-16 20:03:00,83.7,72.4,30.13,East,93,0.0,0.0,69,0.00,,,0.00,520,WeatherCatV1.20B785,2013-07-17 00:03:00,
2013-07-16 20:08:00,83.4,72.6,30.12,East,93,0.0,0.0,70,0.00,,,0.00,520,WeatherCatV1.20B785,2013-07-17 00:08:00,
2013-07-16 20:13:00,83.2,72.4,30.13,East,93,0.0,0.0,70,0.00,,,0.00,520,WeatherCatV1.20B785,2013-07-17 00:13:00,
2013-07-16 20:18:00,82.8,72.0,30.13,East,94,0.0,0.0,70,0.00,,,0.00,520,WeatherCatV1.20B785,2013-07-17 00:18:00,
2013-07-16 20:23:00,82.5,72.1,30.13,East,93,0.0,0.0,71,0.00,,,0.00,520,WeatherCatV1.20B785,2013-07-17 00:23:00,
2013-07-16 20:28:00,82.3,72.3,30.13,East,94,0.0,0.0,72,0.00,,,0.00,520,WeatherCatV1.20B785,2013-07-17 00:28:00,
2013-07-16 20:33:00,82.1,73.0,30.13,East,94,0.0,0.0,74,0.00,,,0.00,520,WeatherCatV1.20B785,2013-07-17 00:33:00,
2013-07-16 20:38:00,81.8,72.7,30.13,East,94,0.0,0.0,74,0.00,,,0.00,520,WeatherCatV1.20B785,2013-07-17 00:38:00,
2013-07-16 20:43:00,81.5,72.8,30.13,East,93,0.0,0.0,75,0.00,,,0.00,520,WeatherCatV1.20B785,2013-07-17 00:43:00,
2013-07-16 20:48:00,81.3,73.0,30.13,East,93,0.0,0.0,76,0.00,,,0.00,520,WeatherCatV1.20B785,2013-07-17 00:48:00,
2013-07-16 20:53:00,81.0,73.1,30.13,East,94,0.0,0.0,77,0.00,,,0.00,520,WeatherCatV1.20B785,2013-07-17 00:53:00,
2013-07-16 20:58:00,80.8,72.9,30.13,East,93,0.0,0.0,77,0.00,,,0.00,520,WeatherCatV1.20B785,2013-07-17 00:58:00,
2013-07-16 21:03:00,80.6,73.1,30.13,East,94,0.0,0.0,78,0.00,,,0.00,520,WeatherCatV1.20B785,2013-07-17 01:03:00,
2013-07-16 21:08:00,80.5,73.4,30.13,East,94,0.0,0.0,79,0.00,,,0.00,520,WeatherCatV1.20B785,2013-07-17 01:08:00,
2013-07-16 21:13:00,80.3,73.2,30.13,East,94,0.0,0.0,79,0.00,,,0.00,520,WeatherCatV1.20B785,2013-07-17 01:13:00,
2013-07-16 21:18:00,80.1,73.0,30.14,East,94,0.0,0.0,79,0.00,,,0.00,520,WeatherCatV1.20B785,2013-07-17 01:18:00,
2013-07-16 21:23:00,79.9,72.8,30.14,East,94,0.0,0.0,79,0.00,,,0.00,520,WeatherCatV1.20B785,2013-07-17 01:23:00,
2013-07-16 21:28:00,79.7,72.6,30.14,East,94,0.0,0.0,79,0.00,,,0.00,520,WeatherCatV1.20B785,2013-07-17 01:28:00,
2013-07-16 21:33:00,79.5,72.4,30.14,East,93,0.0,0.0,79,0.00,,,0.00,520,WeatherCatV1.20B785,2013-07-17 01:33:00,
2013-07-16 21:38:00,79.4,73.0,30.14,East,93,0.0,0.0,81,0.00,,,0.00,520,WeatherCatV1.20B785,2013-07-17 01:38:00,
2013-07-16 21:43:00,79.2,73.2,30.14,East,94,0.0,0.0,82,0.00,,,0.00,520,WeatherCatV1.20B785,2013-07-17 01:43:00,
2013-07-16 21:48:00,79.0,73.4,30.14,East,94,0.0,0.0,83,0.00,,,0.00,520,WeatherCatV1.20B785,2013-07-17 01:48:00,
2013-07-16 21:53:00,78.8,73.2,30.15,East,94,0.0,0.0,83,0.00,,,0.00,520,WeatherCatV1.20B785,2013-07-17 01:53:00,
2013-07-16 21:58:00,78.6,73.3,30.15,East,93,0.0,0.0,84,0.00,,,0.00,520,WeatherCatV1.20B785,2013-07-17 01:58:00,
2013-07-16 22:03:00,78.3,73.1,30.15,East,93,0.0,0.0,84,0.00,,,0.00,520,WeatherCatV1.20B785,2013-07-17 02:03:00,
2013-07-16 22:08:00,78.1,73.2,30.15,East,94,0.0,0.0,85,0.00,,,0.00,520,WeatherCatV1.20B785,2013-07-17 02:08:00,
2013-07-16 22:13:00,77.9,73.0,30.15,East,93,0.0,0.0,85,0.00,,,0.00,520,WeatherCatV1.20B785,2013-07-17 02:13:00,
2013-07-16 22:18:00,77.8,72.9,30.15,East,94,0.0,0.0,85,0.00,,,0.00,520,WeatherCatV1.20B785,2013-07-17 02:18:00,
2013-07-16 22:23:00,77.6,72.4,30.15,East,93,0.0,0.0,84,0.00,,,0.00,520,WeatherCatV1.20B785,2013-07-17 02:23:00,
2013-07-16 22:28:00,77.4,71.5,30.15,East,94,0.0,0.0,82,0.00,,,0.00,520,WeatherCatV1.20B785,2013-07-17 02:28:00,
2013-07-16 22:33:00,77.4,72.5,30.15,East,93,0.0,0.0,85,0.00,,,0.00,520,WeatherCatV1.20B785,2013-07-17 02:33:00,
2013-07-16 22:38:00,77.3,72.4,30.15,East,93,0.0,0.0,85,0.00,,,0.00,520,WeatherCatV1.20B785,2013-07-17 02:38:00,
2013-07-16 22:43:00,77.1,72.2,30.15,East,94,0.0,0.0,85,0.00,,,0.00,520,WeatherCatV1.20B785,2013-07-17 02:43:00,
2013-07-16 22:48:00,76.9,72.0,30.15,East,93,0.0,0.0,85,0.00,,,0.00,520,WeatherCatV1.20B785,2013-07-17 02:48:00,
2013-07-16 22:53:00,76.8,71.6,30.15,East,94,0.0,0.0,84,0.00,,,0.00,520,WeatherCatV1.20B785,2013-07-17 02:53:00,
2013-07-16 22:58:00,76.7,71.8,30.15,East,93,0.0,0.0,85,0.00,,,0.00,520,WeatherCatV1.20B785,2013-07-17 02:58:00,
2013-07-16 23:03:00,76.6,71.4,30.15,East,93,0.0,0.0,84,0.00,,,0.00,520,WeatherCatV1.20B785,2013-07-17 03:03:00,
2013-07-16 23:08:00,76.4,71.2,30.15,East,94,0.0,0.0,84,0.00,,,0.00,520,WeatherCatV1.20B785,2013-07-17 03:08:00,
2013-07-16 23:13:00,76.4,71.5,30.15,East,93,0.0,0.0,85,0.00,,,0.00,520,WeatherCatV1.20B785,2013-07-17 03:13:00,
2013-07-16 23:18:00,76.3,71.4,30.15,East,93,0.0,0.0,85,0.00,,,0.00,520,WeatherCatV1.20B785,2013-07-17 03:18:00,
2013-07-16 23:23:00,76.2,71.3,30.15,East,93,0.0,0.0,85,0.00,,,0.00,520,WeatherCatV1.20B785,2013-07-17 03:23:00,
2013-07-16 23:28:00,76.2,71.3,30.15,East,93,0.0,0.0,85,0.00,,,0.00,520,WeatherCatV1.20B785,2013-07-17 03:28:00,
2013-07-16 23:33:00,76.1,71.2,30.14,East,94,0.0,0.0,85,0.00,,,0.00,520,WeatherCatV1.20B785,2013-07-17 03:33:00,
2013-07-16 23:38:00,76.0,71.2,30.14,East,93,0.0,0.0,85,0.00,,,0.00,520,WeatherCatV1.20B785,2013-07-17 03:38:00,
2013-07-16 23:43:00,75.9,71.1,30.14,East,93,0.0,0.0,85,0.00,,,0.00,520,WeatherCatV1.20B785,2013-07-17 03:43:00,
2013-07-16 23:48:00,75.8,71.3,30.14,East,94,0.0,0.0,86,0.00,,,0.00,520,WeatherCatV1.20B785,2013-07-17 03:48:00,
2013-07-16 23:53:00,75.7,71.2,30.14,East,93,0.0,0.0,86,0.00,,,0.00,520,WeatherCatV1.20B785,2013-07-17 03:53:00,
2013-07-16 23:58:00,75.6,71.1,30.14,East,94,0.0,0.0,86,0.00,,,0.00,520,WeatherCatV1.20B785,2013-07-17 03:58:00,